Regional Weather Roundup
Issued by NWS New Orleans/Baton Rouge, LA

Home | Current Version | Previous Version | Text Only | Print | Product List | Glossary On
Versions: 1 2 3 4 5 6 7 8 9 10 11 12 13 14 15 16 17 18 19 20 21 22 23 24 25 26 27 28 29 30 31 32 33 34 35 36 37 38 39 40 41 42 43 44 45 46 47 48 49 50
000
ASUS44 KLIX 300412
RWRLIX
NEW ORLEANS REGIONAL WEATHER ROUNDUP
NATIONAL WEATHER SERVICE NEW ORLEANS LA
1100 PM CDT FRI MAY 29 2015

NOTE: "FAIR" INDICATES FEW OR NO CLOUDS BELOW 12,000 FEET WITH NO
      SIGNIFICANT WEATHER AND/OR OBSTRUCTIONS TO VISIBILITY.
      SKY/WX - SKY CONDITION AND SIGNIFICANT WEATHER.
      TMP - AIR TEMPERATURE.     DP    - DEWPOINT TEMPERATURE.
      RH  - RELATIVE HUMIDITY.   PRES  - PRESSURE.
      HI  - HEAT INDEX.          WCI   - WIND CHILL INDEX.

*  THESE STATIONS ARE NOT NWS OR FAA STATIONS AND ARE NOT UNDER
   NWS QUALITY CONTROL.

LAZ038-040-048-061>063-065>067-069-300500-
SOUTHEAST LOUISIANA

CITY           SKY/WX    TMP DP  RH WIND       PRES   REMARKS
N.O. AUDUBON     N/A     78  73  84 MISG        N/A
N.O. INTL ARPT PTCLDY    77  69  76 SE7       30.05R
N.O. LAKEFRONT CLEAR     80  71  74 SE6       30.06R
SLIDELL        CLEAR     76  73  91 SE3       30.05S
BATON ROUGE    MOCLDY    74  71  91 NE3       30.06R
BOOTHVILLE     CLEAR     78  73  84 CALM      30.07R
BELLE CHASSE   PTCLDY    76  70  82 SE5       30.05R
BOGALUSA*        N/A     75  70  83 SE3       30.08R
GALLIANO*      PTCLDY    78  71  78 CALM      30.05S
NEW ROADS*       N/A     75  71  88 SE5       30.05F
GONZALES*        N/A     74  74 100 CALM      30.04S
HAMMOND*       PTCLDY    75  68  78 CALM      30.08R
HOUMA*         MOCLDY    75  70  85 E3        30.04S
PORT FOURCHON* MOCLDY    81  70  69 SE9       30.05S

$$

MSZ070-080>082-300500-
SOUTHERN MISSISSIPPI

CITY           SKY/WX    TMP DP  RH WIND       PRES   REMARKS
MCCOMB         PTCLDY    74  71  91 CALM      30.08R
GULFPORT       PTCLDY    80  71  74 SE10      30.06S
BILOXI         PTCLDY    80  71  75 S10       30.06S
PASCAGOULA     CLEAR     71  69  93 CALM      30.08R

$$

COASTAL OBSERVATIONS
LAKE AND NEARSHORE STATIONS

STATION/POSITION TIME  TEMP    WIND        PRES    WAVE
                       AIR SEA DIR/SP/G            HT/PER
                 (UTC) (F)     (DEG/KT/KT) (MB)    (FT/S)
PASCAGOULA       0300   80     160/ 10/ 13 1017.9
WAVELAND YACHT   0300   81 83  160/ 13/ 15 1017.9
GRAND ISLE       0300   80 84  140/  7/ 11 1017.5
SOUTHWEST PASS   0300   80 75  140/ 11/ 13 1018.0
NEW CANAL        0300   79 81  140/  4/  7 1016.6
SHELL BEACH      0300   78 83  140/  9/ 11 1017.4

OFFSHORE STATIONS

STATION/POSITION TIME  TEMP    WIND        PRES    WAVE
                       AIR SEA DIR/SP/G            HT/PER
                 (UTC) (F)     (DEG/KT/KT) (MB)    (FT/S)
64 S DAUPHIN ISL 0350   79 80  120/ 12/ 14 1018.3    3/ 5

$$




USA.gov is the U.S. government's official web portal to all federal, state and local government web resources and services.